• In Portugal
  • List of Countries
  • For 7 days
  • Water Temperature
  • Satellite Maps
  • Weather Map
  • Weather Widgets
  • user-avatar
    Login

    Hourly Weather Windhuk

    Today, 16 December, Saturday

    Time Temperature Precipitation Wind Pressure Humidity
    00:00 +23°C° 0 mm 1 mps 623 mmHg 17%
    01:00 +20°C° 0 mm 0 mps 623 mmHg 18%
    02:00 +20°C° 0 mm 0 mps 623 mmHg 18%
    03:00 +20°C° 0 mm 0 mps 622 mmHg 18%
    04:00 +21°C° 0 mm 1 mps 622 mmHg 18%
    05:00 +23°C° 0 mm 1 mps 623 mmHg 17%
    06:00 +24°C° 0 mm 1 mps 624 mmHg 16%
    07:00 +26°C° 0 mm 1 mps 624 mmHg 14%
    08:00 +27°C° 0 mm 2 mps 625 mmHg 15%
    09:00 +29°C° 0 mm 3 mps 625 mmHg 15%
    10:00 +30°C° 0 mm 5 mps 625 mmHg 16%
    11:00 +32°C° 0 mm 5 mps 625 mmHg 17%
    12:00 +33°C° 0 mm 5 mps 625 mmHg 18%
    13:00 +34°C° 0 mm 6 mps 625 mmHg 19%
    14:00 +33°C° 0 mm 6 mps 625 mmHg 21%
    15:00 +33°C° 0 mm 6 mps 624 mmHg 23%
    16:00 +32°C° 0 mm 6 mps 624 mmHg 25%
    17:00 +32°C° 0.1 mm 5 mps 624 mmHg 25%
    18:00 +30°C° 0.1 mm 5 mps 624 mmHg 25%
    19:00 +29°C° 0.1 mm 5 mps 624 mmHg 25%
    20:00 +28°C° 0.2 mm 4 mps 624 mmHg 26%
    21:00 +27°C° 0.2 mm 3 mps 624 mmHg 28%
    22:00 +26°C° 0.2 mm 2 mps 624 mmHg 29%
    23:00 +25°C° 0.8 mm 3 mps 624 mmHg 35%

    Tomorrow, 17 December, Sunday

    Time Temperature Precipitation Wind Pressure Humidity
    00:00 +23°C° 0.8 mm 4 mps 624 mmHg 41%
    01:00 +23°C° 0.8 mm 5 mps 623 mmHg 46%
    02:00 +24°C° 0.2 mm 3 mps 623 mmHg 47%
    03:00 +24°C° 0.2 mm 2 mps 623 mmHg 47%
    04:00 +24°C° 0.2 mm 1 mps 623 mmHg 47%
    05:00 +24°C° 0 mm 1 mps 623 mmHg 46%
    06:00 +24°C° 0 mm 1 mps 623 mmHg 44%
    07:00 +25°C° 0 mm 1 mps 623 mmHg 43%
    08:00 +26°C° 0.1 mm 2 mps 624 mmHg 41%
    09:00 +26°C° 0.1 mm 2 mps 624 mmHg 40%
    10:00 +27°C° 0.1 mm 3 mps 624 mmHg 39%
    11:00 +28°C° 0.1 mm 4 mps 624 mmHg 36%
    12:00 +30°C° 0.1 mm 5 mps 624 mmHg 33%
    13:00 +32°C° 0.1 mm 5 mps 624 mmHg 30%
    14:00 +30°C° 0.1 mm 6 mps 623 mmHg 31%
    15:00 +30°C° 0.1 mm 6 mps 623 mmHg 32%
    16:00 +29°C° 0.1 mm 7 mps 622 mmHg 32%
    17:00 +28°C° 0.8 mm 6 mps 622 mmHg 33%
    18:00 +27°C° 0.8 mm 5 mps 622 mmHg 35%
    19:00 +25°C° 0.8 mm 5 mps 622 mmHg 36%
    20:00 +25°C° 0.1 mm 4 mps 623 mmHg 34%
    21:00 +25°C° 0.1 mm 3 mps 623 mmHg 33%
    22:00 +24°C° 0.1 mm 2 mps 624 mmHg 32%
    23:00 +24°C° 0 mm 2 mps 623 mmHg 33%

    Day after tomorrow, 18 December, Monday

    Time Temperature Precipitation Wind Pressure Humidity
    00:00 +24°C° 0 mm 1 mps 623 mmHg 34%
    01:00 +23°C° 0 mm 1 mps 622 mmHg 36%
    02:00 +23°C° 0 mm 1 mps 622 mmHg 37%
    03:00 +22°C° 0 mm 1 mps 622 mmHg 38%
    04:00 +20°C° 0 mm 0 mps 621 mmHg 39%
    05:00 +21°C° 0 mm 0 mps 622 mmHg 36%
    06:00 +21°C° 0 mm 0 mps 622 mmHg 33%
    07:00 +22°C° 0 mm 0 mps 623 mmHg 30%
    08:00 +25°C° 0 mm 1 mps 624 mmHg 27%
    09:00 +27°C° 0 mm 1 mps 624 mmHg 25%
    10:00 +28°C° 0 mm 2 mps 624 mmHg 22%
    11:00 +29°C° 0 mm 2 mps 624 mmHg 21%
    12:00 +30°C° 0 mm 3 mps 624 mmHg 20%
    13:00 +31°C° 0 mm 3 mps 624 mmHg 19%
    14:00 +32°C° 0 mm 4 mps 623 mmHg 19%
    15:00 +33°C° 0 mm 4 mps 623 mmHg 18%
    16:00 +33°C° 0 mm 5 mps 622 mmHg 17%
    17:00 +32°C° 0 mm 5 mps 622 mmHg 17%
    18:00 +29°C° 0 mm 5 mps 622 mmHg 18%
    19:00 +28°C° 0 mm 6 mps 622 mmHg 18%
    20:00 +27°C° 0 mm 5 mps 622 mmHg 20%
    21:00 +26°C° 0 mm 3 mps 622 mmHg 21%
    22:00 +25°C° 0 mm 2 mps 622 mmHg 22%
    23:00 +24°C° 0 mm 2 mps 622 mmHg 24%

    19 December, Tuesday

    Time Temperature Precipitation Wind Pressure Humidity
    00:00 +24°C° 0 mm 2 mps 621 mmHg 25%
    01:00 +23°C° 0 mm 1 mps 621 mmHg 27%
    02:00 +23°C° 0 mm 1 mps 621 mmHg 29%
    03:00 +22°C° 0 mm 1 mps 620 mmHg 31%
    04:00 +21°C° 0 mm 1 mps 620 mmHg 33%
    05:00 +22°C° 0 mm 1 mps 621 mmHg 31%
    06:00 +22°C° 0 mm 1 mps 621 mmHg 29%
    07:00 +23°C° 0 mm 1 mps 622 mmHg 28%
    08:00 +24°C° 0 mm 2 mps 622 mmHg 26%
    09:00 +26°C° 0 mm 2 mps 622 mmHg 24%
    10:00 +27°C° 0 mm 2 mps 622 mmHg 23%
    11:00 +28°C° 0.1 mm 2 mps 622 mmHg 22%
    12:00 +29°C° 0.1 mm 2 mps 622 mmHg 22%
    13:00 +31°C° 0.1 mm 3 mps 622 mmHg 22%
    14:00 +31°C° 0 mm 3 mps 622 mmHg 22%
    15:00 +31°C° 0 mm 3 mps 622 mmHg 22%
    16:00 +31°C° 0 mm 3 mps 621 mmHg 22%
    17:00 +30°C° 0 mm 4 mps 622 mmHg 23%
    18:00 +30°C° 0 mm 4 mps 622 mmHg 23%
    19:00 +29°C° 0 mm 4 mps 622 mmHg 24%
    20:00 +28°C° 0 mm 4 mps 622 mmHg 25%
    21:00 +27°C° 0 mm 4 mps 622 mmHg 26%
    22:00 +26°C° 0 mm 4 mps 622 mmHg 27%
    23:00 +25°C° 0 mm 3 mps 622 mmHg 28%

    20 December, Wednesday

    Time Temperature Precipitation Wind Pressure Humidity
    00:00 +25°C° 0 mm 3 mps 621 mmHg 29%
    01:00 +24°C° 0 mm 3 mps 621 mmHg 30%
    02:00 +24°C° 0 mm 2 mps 621 mmHg 31%
    03:00 +24°C° 0 mm 2 mps 621 mmHg 33%
    04:00 +23°C° 0 mm 2 mps 620 mmHg 34%
    05:00 +24°C° 0 mm 2 mps 621 mmHg 34%
    06:00 +24°C° 0 mm 2 mps 622 mmHg 33%
    07:00 +25°C° 0 mm 2 mps 622 mmHg 33%
    08:00 +26°C° 0 mm 2 mps 622 mmHg 33%
    09:00 +27°C° 0 mm 3 mps 623 mmHg 33%
    10:00 +28°C° 0 mm 4 mps 623 mmHg 33%
    11:00 +29°C° 0 mm 3 mps 623 mmHg 33%
    12:00 +30°C° 0 mm 3 mps 622 mmHg 32%
    13:00 +30°C° 0 mm 3 mps 622 mmHg 31%
    14:00 +30°C° 0.2 mm 3 mps 622 mmHg 32%
    15:00 +29°C° 0.2 mm 3 mps 622 mmHg 32%
    16:00 +29°C° 0.2 mm 3 mps 622 mmHg 33%
    17:00 +28°C° 0.4 mm 3 mps 622 mmHg 35%
    18:00 +27°C° 0.4 mm 3 mps 622 mmHg 37%
    19:00 +27°C° 0.4 mm 3 mps 623 mmHg 39%
    20:00 +26°C° 0.2 mm 3 mps 623 mmHg 38%
    21:00 +25°C° 0.2 mm 4 mps 623 mmHg 38%
    22:00 +23°C° 0.2 mm 4 mps 623 mmHg 37%
    23:00 +22°C° 0.1 mm 4 mps 623 mmHg 36%

    21 December, Thursday

    Time Temperature Precipitation Wind Pressure Humidity
    00:00 +22°C° 0.1 mm 3 mps 622 mmHg 35%
    01:00 +23°C° 0.1 mm 2 mps 622 mmHg 34%
    02:00 +21°C° 0 mm 2 mps 622 mmHg 34%
    03:00 +22°C° 0 mm 1 mps 621 mmHg 35%
    04:00 +22°C° 0 mm 1 mps 621 mmHg 36%
    05:00 +22°C° 0 mm 1 mps 622 mmHg 35%
    06:00 +23°C° 0 mm 1 mps 622 mmHg 33%
    07:00 +23°C° 0 mm 1 mps 623 mmHg 32%
    08:00 +25°C° 0 mm 1 mps 623 mmHg 31%
    09:00 +26°C° 0 mm 1 mps 623 mmHg 31%
    10:00 +28°C° 0 mm 1 mps 624 mmHg 30%
    11:00 +28°C° 0 mm 2 mps 624 mmHg 29%
    12:00 +29°C° 0 mm 2 mps 623 mmHg 28%
    13:00 +30°C° 0 mm 3 mps 623 mmHg 27%
    14:00 +30°C° 0.1 mm 3 mps 623 mmHg 26%
    15:00 +29°C° 0.1 mm 3 mps 623 mmHg 26%
    16:00 +29°C° 0.1 mm 4 mps 622 mmHg 26%
    17:00 +29°C° 0 mm 4 mps 622 mmHg 25%
    18:00 +28°C° 0 mm 4 mps 623 mmHg 24%
    19:00 +27°C° 0 mm 5 mps 623 mmHg 24%
    20:00 +26°C° 0 mm 4 mps 623 mmHg 25%
    21:00 +25°C° 0 mm 4 mps 623 mmHg 27%
    22:00 +25°C° 0 mm 4 mps 623 mmHg 29%
    23:00 +24°C° 0 mm 3 mps 623 mmHg 30%
    Show more

    XHprof extension not loaded